This is the latest recevied weather packets stored in our database for station/object N8AMF. If no packets are shown the sender has not sent any weather packets the latest 10 day(s).
| Time | Temp. | Humidity | Pressure | Rain* | Wind** | Luminosity | Snow |
|---|---|---|---|---|---|---|---|
| 1777760889 | 7.78° C | 53% | 1016.1 hPa | 0 mm | - | 126 W/m² | - |
| 1777760586 | 7.78° C | 52% | 1016 hPa | 0 mm | - | 186 W/m² | - |
| 1777760281 | 8.33° C | 53% | 1016 hPa | 0 mm | - | 203 W/m² | - |
| 1777759978 | 8.89° C | 48% | 1016.3 hPa | 0 mm | - | 209 W/m² | - |
| 1777759675 | 8.33° C | 55% | 1016.1 hPa | 0 mm | - | 220 W/m² | - |
| 1777759371 | 8.89° C | 49% | 1016.3 hPa | 0 mm | - | 221 W/m² | - |
| 1777759067 | 8.89° C | 52% | 1016.2 hPa | 0 mm | - | 488 W/m² | - |
| 1777758765 | 8.89° C | 52% | 1016.2 hPa | 0 mm | - | 405 W/m² | - |
| 1777758462 | 8.89° C | 57% | 1016.1 hPa | 0 mm | - | 459 W/m² | - |
| 1777758159 | 8.33° C | 52% | 1016.1 hPa | 0 mm | - | 491 W/m² | - |
| 1777757856 | 8.33° C | 53% | 1016.1 hPa | 0 mm | - | 511 W/m² | - |
| 1777757553 | 7.78° C | 56% | 1016.1 hPa | 0 mm | - | 281 W/m² | - |
| 1777757252 | 8.33° C | 55% | 1016.4 hPa | 0 mm | - | 180 W/m² | - |
| 1777756950 | 8.89° C | 54% | 1016.1 hPa | 0 mm | - | 291 W/m² | - |
| 1777756645 | 9.44° C | 54% | 1016.1 hPa | 0 mm | - | 307 W/m² | - |
| 1777756343 | 8.89° C | 51% | 1016.1 hPa | 0 mm | - | 771 W/m² | - |
| 1777756040 | 8.33° C | 52% | 1016.3 hPa | 0 mm | - | 402 W/m² | - |
| 1777755737 | 7.78° C | 58% | 1016.2 hPa | 0 mm | - | 471 W/m² | - |
| 1777755434 | 8.33° C | 52% | 1016.1 hPa | 0 mm | - | 303 W/m² | - |
| 1777755130 | 8.33° C | 59% | 1016.2 hPa | 0 mm | - | 375 W/m² | - |
| 1777754827 | 7.78° C | 61% | 1016.3 hPa | 0 mm | - | 402 W/m² | - |
| 1777754525 | 7.78° C | 60% | 1016.3 hPa | 0 mm | - | 378 W/m² | - |
| 1777754222 | 7.78° C | 57% | 1016.3 hPa | 0 mm | - | 426 W/m² | - |
| 1777753921 | 8.33° C | 62% | 1016.2 hPa | 0 mm | - | 475 W/m² | - |
| 1777753614 | 7.78° C | 59% | 1016.2 hPa | 0 mm | - | 447 W/m² | - |
* Rain latest hour (hover to see other rain measurements)
** Current wind speed in m/s (hover to see current wind gust speed)